| time (UTC) | temp C | wind direction | speed KPH | gust KPH | rain 1hr cm | rain 24hr cm | rain mn cm | humidity % | barometer mb |
| 20260507214159 | 12 | 0.0 | 0.0 | 0.00 | 0.00 | 0.00 | 99 | 1012.7 | |
| 20260507213653 | 13 | 0.0 | 0.0 | 0.00 | 0.00 | 0.00 | 99 | 1012.7 | |
| 20260507213147 | 13 | 0.0 | 0.0 | 0.00 | 0.00 | 0.00 | 99 | 1012.7 | |
| 20260507212641 | 13 | 0.0 | 0.0 | 0.00 | 0.00 | 0.00 | 99 | 1012.7 | |
| 20260507212144 | 13 | 0.0 | 0.0 | 0.00 | 0.00 | 0.00 | 99 | 1012.6 | |
| 20260507211629 | 13 | 0.0 | 0.0 | 0.00 | 0.00 | 0.00 | 99 | 1012.6 | |
| 20260507211123 | 13 | 0.0 | 0.0 | 0.00 | 0.00 | 0.00 | 99 | 1012.6 | |
| 20260507210617 | 13 | 0.0 | 0.0 | 0.00 | 0.00 | 0.00 | 99 | 1012.5 | |
| 20260507210111 | 14 | 0.0 | 0.0 | 0.00 | 0.00 | 0.00 | 99 | 1012.5 | |
| 20260507205604 | 14 | 0.0 | 0.0 | 0.00 | 0.00 | 0.00 | 99 | 1012.6 | |
| 20260507205107 | 14 | 0.0 | 0.0 | 0.00 | 0.00 | 0.00 | 99 | 1012.6 | |
| 20260507204553 | 15 | 0.0 | 0.0 | 0.00 | 0.00 | 0.00 | 99 | 1012.6 | |
| 20260507204047 | 15 | 0.0 | 0.0 | 0.00 | 0.00 | 0.00 | 99 | 1012.6 | |
| 20260507203541 | 15 | 0.0 | 0.0 | 0.00 | 0.00 | 0.00 | 99 | 1012.5 | |
| 20260507203035 | 15 | 0.0 | 0.0 | 0.00 | 0.00 | 0.00 | 99 | 1012.6 | |
| 20260507202529 | 15 | 0.0 | 0.0 | 0.00 | 0.00 | 0.00 | 99 | 1012.5 | |
| 20260507202032 | 15 | 0.0 | 0.0 | 0.00 | 0.00 | 0.00 | 99 | 1012.5 | |
| 20260507201515 | 15 | 0.0 | 0.0 | 0.00 | 0.00 | 0.00 | 99 | 1012.5 | |
| 20260507201009 | 15 | 0.0 | 0.0 | 0.00 | 0.00 | 0.00 | 99 | 1012.5 | |
| 20260507200504 | 15 | 0.0 | 0.0 | 0.00 | 0.00 | 0.00 | 99 | 1012.4 | |
| 20260507195957 | 16 | 0.0 | 0.0 | 0.00 | 0.00 | 0.00 | 99 | 1012.4 | |
| 20260507195450 | 16 | 0.0 | 0.0 | 0.00 | 0.00 | 0.00 | 99 | 1012.3 | |
| 20260507194952 | 16 | 0.0 | 0.0 | 0.00 | 0.00 | 0.00 | 99 | 1012.3 | |
| 20260507194437 | 16 | 0.0 | 0.0 | 0.00 | 0.00 | 0.00 | 99 | 1012.2 | |
| 20260507193932 | 16 | 0.0 | 0.0 | 0.00 | 0.00 | 0.00 | 99 | 1012.2 | |
| 20260507193426 | 16 | 0.0 | 0.0 | 0.00 | 0.00 | 0.00 | 99 | 1012.1 | |
| 20260507192919 | 16 | 0.0 | 0.0 | 0.00 | 0.00 | 0.00 | 99 | 1012.0 | |
| 20260507192413 | 17 | 0.0 | 0.0 | 0.00 | 0.00 | 0.00 | 99 | 1012.0 | |
| 20260507191916 | 17 | 0.0 | 1.6 | 0.00 | 0.00 | 0.00 | 99 | 1012.0 | |
| 20260507191401 | 17 | 0.0 | 0.0 | 0.00 | 0.00 | 0.00 | 99 | 1012.0 | |
| 20260507190855 | 17 | 0.0 | 0.0 | 0.00 | 0.00 | 0.00 | 99 | 1012.1 | |
| 20260507190349 | 17 | 0.0 | 0.0 | 0.00 | 0.00 | 0.00 | 99 | 1012.0 | |
| 20260507185843 | 18 | 0.0 | 0.0 | 0.00 | 0.00 | 0.00 | 99 | 1012.0 | |
| 20260507185337 | 18 | 0.0 | 0.0 | 0.00 | 0.00 | 0.00 | 99 | 1012.0 | |
| 20260507184839 | 18 | 0.0 | 0.0 | 0.00 | 0.00 | 0.00 | 99 | 1011.9 | |
| 20260507184324 | 18 | 0.0 | 0.0 | 0.00 | 0.00 | 0.00 | 99 | 1011.9 | |
| 20260507183818 | 18 | 0.0 | 0.0 | 0.00 | 0.00 | 0.00 | 99 | 1011.9 | |
| 20260507183312 | 18 | 0.0 | 0.0 | 0.00 | 0.00 | 0.00 | 99 | 1011.8 | |
| 20260507182807 | 19 | 1.6 | 4.8 | 0.00 | 0.00 | 0.00 | 99 | 1011.8 | |
| 20260507182301 | 19 | 1.6 | 3.2 | 0.00 | 0.00 | 0.00 | 99 | 1011.7 | |
| 20260507181803 | 19 | 1.6 | 4.8 | 0.00 | 0.00 | 0.00 | 99 | 1011.6 | |
| 20260507181248 | 20 | 3.2 | 8.0 | 0.00 | 0.00 | 0.00 | 99 | 1011.6 | |
| 20260507180742 | 20 | 1.6 | 6.4 | 0.00 | 0.00 | 0.00 | 99 | 1011.6 | |
| 20260507180236 | 20 | 3.2 | 8.0 | 0.00 | 0.00 | 0.00 | 99 | 1011.6 | |
| 20260507175729 | 20 | 0.0 | 1.6 | 0.00 | 0.00 | 0.00 | 99 | 1011.6 | |
| 20260507175223 | 20 | 3.2 | 8.0 | 0.00 | 0.00 | 0.00 | 99 | 1011.6 | |
| 20260507174726 | 20 | 1.6 | 6.4 | 0.00 | 0.00 | 0.00 | 99 | 1011.6 | |
| 20260507174212 | 20 | 3.2 | 9.7 | 0.00 | 0.00 | 0.00 | 99 | 1011.7 | |
| 20260507173705 | 20 | 3.2 | 11.3 | 0.00 | 0.00 | 0.00 | 99 | 1011.7 | |
| 20260507173159 | 20 | 6.4 | 19.3 | 0.00 | 0.00 | 0.00 | 99 | 1011.8 | |
| 20260507172653 | 21 | 4.8 | 16.1 | 0.00 | 0.00 | 0.00 | 99 | 1011.8 | |
| 20260507172147 | 21 | 3.2 | 9.7 | 0.00 | 0.00 | 0.00 | 99 | 1011.9 | |
| 20260507171649 | 21 | 1.6 | 4.8 | 0.00 | 0.00 | 0.00 | 99 | 1011.8 | |
| 20260507171135 | 21 | 4.8 | 12.9 | 0.00 | 0.00 | 0.00 | 99 | 1011.9 | |
| 20260507170629 | 21 | 6.4 | 19.3 | 0.00 | 0.00 | 0.00 | 99 | 1011.9 | |
| 20260507170122 | 21 | 6.4 | 17.7 | 0.00 | 0.00 | 0.00 | 99 | 1012.0 | |
| 20260507165615 | 21 | 6.4 | 17.7 | 0.00 | 0.00 | 0.00 | 99 | 1012.0 | |
| 20260507165109 | 22 | 8.0 | 22.5 | 0.00 | 0.00 | 0.00 | 99 | 1012.0 | |
| 20260507164612 | 22 | 8.0 | 22.5 | 0.00 | 0.00 | 0.00 | 99 | 1012.0 | |
| 20260507164057 | 22 | 6.4 | 17.7 | 0.00 | 0.00 | 0.00 | 99 | 1012.0 | |
| 20260507163551 | 22 | 8.0 | 22.5 | 0.00 | 0.00 | 0.00 | 99 | 1012.0 | |
| 20260507163045 | 22 | 8.0 | 22.5 | 0.00 | 0.00 | 0.00 | 99 | 1012.0 | |
| 20260507162539 | 23 | 6.4 | 19.3 | 0.00 | 0.00 | 0.00 | 99 | 1012.0 | |
| 20260507162033 | 22 | 3.2 | 11.3 | 0.00 | 0.00 | 0.00 | 99 | 1012.0 | |
| 20260507161536 | 21 | 4.8 | 12.9 | 0.00 | 0.00 | 0.00 | 99 | 1012.0 | |
| 20260507161021 | 20 | 1.6 | 4.8 | 0.00 | 0.00 | 0.00 | 99 | 1012.1 | |
| 20260507160515 | 20 | 1.6 | 4.8 | 0.00 | 0.00 | 0.00 | 99 | 1012.2 | |
| 20260507160009 | 20 | 3.2 | 9.7 | 0.00 | 0.00 | 0.00 | 99 | 1012.1 | |
| 20260507155502 | 20 | 1.6 | 6.4 | 0.00 | 0.00 | 0.00 | 99 | 1012.1 | |
| 20260507154956 | 20 | 3.2 | 9.7 | 0.00 | 0.00 | 0.00 | 99 | 1012.1 | |
| 20260507154459 | 20 | 3.2 | 8.0 | 0.00 | 0.00 | 0.00 | 99 | 1012.1 | |
| 20260507154023 | 20 | 3.2 | 8.0 | 0.00 | 0.00 | 0.00 | 99 | 1012.0 | |
| 20260507153944 | 20 | 3.2 | 8.0 | 0.00 | 0.00 | 0.00 | 99 | 1012.0 | |
| 20260507153438 | 20 | 4.8 | 12.9 | 0.00 | 0.00 | 0.00 | 99 | 1011.9 | |
| 20260507152932 | 21 | 4.8 | 14.5 | 0.00 | 0.00 | 0.00 | 99 | 1011.9 | |
| 20260507152426 | 22 | 6.4 | 19.3 | 0.00 | 0.00 | 0.00 | 99 | 1011.8 | |
| 20260507151920 | 22 | 6.4 | 17.7 | 0.00 | 0.00 | 0.00 | 99 | 1011.8 | |
| 20260507151422 | 22 | 6.4 | 20.9 | 0.00 | 0.00 | 0.00 | 99 | 1011.7 | |
| 20260507150907 | 22 | 4.8 | 14.5 | 0.00 | 0.00 | 0.00 | 99 | 1011.7 | |
| 20260507150402 | 22 | 6.4 | 19.3 | 0.00 | 0.00 | 0.00 | 99 | 1011.8 | |
| 20260507145856 | 22 | 8.0 | 25.7 | 0.00 | 0.00 | 0.00 | 99 | 1011.8 | |
| 20260507145349 | 22 | 4.8 | 12.9 | 0.00 | 0.00 | 0.00 | 99 | 1011.8 | |
| 20260507144843 | 22 | 6.4 | 17.7 | 0.00 | 0.00 | 0.00 | 99 | 1011.9 | |
| 20260507144346 | 22 | 6.4 | 20.9 | 0.00 | 0.00 | 0.00 | 99 | 1012.0 | |
| 20260507143831 | 21 | 6.4 | 20.9 | 0.00 | 0.00 | 0.00 | 99 | 1012.0 | |
| 20260507143325 | 22 | 6.4 | 19.3 | 0.00 | 0.00 | 0.00 | 99 | 1012.1 | |
| 20260507142819 | 22 | 6.4 | 19.3 | 0.00 | 0.00 | 0.00 | 99 | 1012.2 | |
| 20260507142313 | 21 | 6.4 | 17.7 | 0.00 | 0.00 | 0.00 | 99 | 1012.3 | |
| 20260507141807 | 22 | 6.4 | 19.3 | 0.00 | 0.00 | 0.00 | 99 | 1012.3 | |
| 20260507141309 | 22 | 6.4 | 19.3 | 0.00 | 0.00 | 0.00 | 99 | 1012.3 | |
| 20260507140755 | 21 | 6.4 | 20.9 | 0.00 | 0.00 | 0.00 | 99 | 1012.4 | |
| 20260507140248 | 21 | 6.4 | 17.7 | 0.00 | 0.00 | 0.00 | 99 | 1012.4 | |
| 20260507135742 | 22 | 6.4 | 19.3 | 0.00 | 0.00 | 0.00 | 99 | 1012.4 | |
| 20260507135236 | 22 | 4.8 | 14.5 | 0.00 | 0.00 | 0.00 | 99 | 1012.5 | |
| 20260507134730 | 21 | 1.6 | 6.4 | 0.00 | 0.00 | 0.00 | 99 | 1012.6 | |
| 20260507134232 | 21 | 6.4 | 19.3 | 0.00 | 0.00 | 0.00 | 99 | 1012.7 | |
| 20260507133717 | 22 | 6.4 | 17.7 | 0.00 | 0.00 | 0.00 | 99 | 1012.8 | |
| 20260507133211 | 22 | 4.8 | 16.1 | 0.00 | 0.00 | 0.00 | 99 | 1012.9 | |
| 20260507132706 | 22 | 6.4 | 20.9 | 0.00 | 0.00 | 0.00 | 99 | 1013.0 | |
| 20260507132200 | 22 | 4.8 | 14.5 | 0.00 | 0.00 | 0.00 | 99 | 1013.0 | |
| 20260507131654 | 22 | 3.2 | 11.3 | 0.00 | 0.00 | 0.00 | 99 | 1013.1 | |
| 20260507131156 | 22 | 4.8 | 12.9 | 0.00 | 0.00 | 0.00 | 99 | 1013.2 | |
| 20260507130641 | 22 | 4.8 | 14.5 | 0.00 | 0.00 | 0.00 | 98 | 1013.2 | |
| 20260507130135 | 21 | 4.8 | 16.1 | 0.00 | 0.00 | 0.00 | 99 | 1013.3 | |
| 20260507125628 | 21 | 6.4 | 19.3 | 0.00 | 0.00 | 0.00 | 99 | 1013.4 | |
| 20260507125123 | 21 | 6.4 | 19.3 | 0.00 | 0.00 | 0.00 | 98 | 1013.4 | |
| 20260507124616 | 21 | 6.4 | 19.3 | 0.00 | 0.00 | 0.00 | 99 | 1013.5 | |
| 20260507124119 | 21 | 4.8 | 16.1 | 0.00 | 0.00 | 0.00 | 99 | 1013.5 | |
| 20260507123604 | 21 | 6.4 | 20.9 | 0.00 | 0.00 | 0.00 | 99 | 1013.6 | |
| 20260507123058 | 22 | 4.8 | 14.5 | 0.00 | 0.00 | 0.00 | 99 | 1013.7 | |
| 20260507122552 | 22 | 4.8 | 16.1 | 0.00 | 0.00 | 0.00 | 97 | 1013.8 | |
| 20260507122046 | 22 | 6.4 | 17.7 | 0.00 | 0.00 | 0.00 | 98 | 1013.8 | |
| 20260507121540 | 22 | 6.4 | 17.7 | 0.00 | 0.00 | 0.00 | 99 | 1013.8 | |
| 20260507121043 | 21 | 4.8 | 16.1 | 0.00 | 0.00 | 0.00 | 99 | 1013.8 | |
| 20260507120528 | 21 | 6.4 | 19.3 | 0.00 | 0.00 | 0.00 | 99 | 1013.9 | |
| 20260507120022 | 21 | 4.8 | 16.1 | 0.00 | 0.00 | 0.00 | 98 | 1013.9 | |
| 20260507115515 | 21 | 6.4 | 19.3 | 0.00 | 0.00 | 0.00 | 97 | 1014.0 | |
| 20260507115010 | 22 | 6.4 | 19.3 | 0.00 | 0.00 | 0.00 | 99 | 1014.0 | |
| 20260507114504 | 21 | 4.8 | 12.9 | 0.00 | 0.00 | 0.00 | 98 | 1014.1 | |
| 20260507114006 | 21 | 6.4 | 17.7 | 0.00 | 0.00 | 0.00 | 98 | 1014.1 | |
| 20260507113452 | 21 | 4.8 | 12.9 | 0.00 | 0.00 | 0.00 | 99 | 1014.2 | |
| 20260507112946 | 21 | 4.8 | 14.5 | 0.00 | 0.00 | 0.00 | 99 | 1014.2 | |
| 20260507112440 | 21 | 6.4 | 17.7 | 0.00 | 0.00 | 0.00 | 98 | 1014.3 | |
| 20260507111935 | 21 | 4.8 | 14.5 | 0.00 | 0.00 | 0.00 | 99 | 1014.3 | |
| 20260507111429 | 21 | 4.8 | 12.9 | 0.00 | 0.00 | 0.00 | 99 | 1014.4 | |
| 20260507110931 | 21 | 4.8 | 16.1 | 0.00 | 0.00 | 0.00 | 99 | 1014.5 | |
| 20260507110418 | 21 | 4.8 | 14.5 | 0.00 | 0.00 | 0.00 | 99 | 1014.5 | |
| 20260507105911 | 22 | 3.2 | 9.7 | 0.00 | 0.00 | 0.00 | 99 | 1014.6 | |
| 20260507105404 | 21 | 3.2 | 9.7 | 0.00 | 0.00 | 0.00 | 99 | 1014.6 | |
| 20260507104858 | 20 | 3.2 | 9.7 | 0.00 | 0.00 | 0.00 | 99 | 1014.6 | |
| 20260507104352 | 20 | 3.2 | 11.3 | 0.00 | 0.00 | 0.00 | 99 | 1014.7 | |
| 20260507103855 | 19 | 4.8 | 14.5 | 0.00 | 0.00 | 0.00 | 99 | 1014.8 | |
| 20260507103340 | 21 | 4.8 | 16.1 | 0.00 | 0.00 | 0.00 | 99 | 1014.8 | |
| 20260507102835 | 20 | 4.8 | 12.9 | 0.00 | 0.00 | 0.00 | 99 | 1014.9 | |
| 20260507102327 | 20 | 4.8 | 12.9 | 0.00 | 0.00 | 0.00 | 99 | 1015.0 | |
| 20260507101821 | 19 | 4.8 | 16.1 | 0.00 | 0.00 | 0.00 | 99 | 1015.1 | |
| 20260507101315 | 20 | 4.8 | 14.5 | 0.00 | 0.00 | 0.00 | 99 | 1015.1 | |
| 20260507100818 | 20 | 4.8 | 12.9 | 0.00 | 0.00 | 0.00 | 99 | 1015.2 | |
| 20260507100303 | 21 | 3.2 | 9.7 | 0.00 | 0.00 | 0.00 | 99 | 1015.3 | |
| 20260507095756 | 20 | 3.2 | 11.3 | 0.00 | 0.00 | 0.00 | 99 | 1015.4 | |
| 20260507095250 | 20 | 4.8 | 14.5 | 0.00 | 0.00 | 0.00 | 99 | 1015.4 | |
| 20260507094744 | 20 | 4.8 | 16.1 | 0.00 | 0.00 | 0.00 | 99 | 1015.5 | |
| 20260507094238 | 20 | 4.8 | 12.9 | 0.00 | 0.00 | 0.00 | 99 | 1015.5 | |
| 20260507093740 | 20 | 4.8 | 16.1 | 0.00 | 0.00 | 0.00 | 99 | 1015.5 | |
| 20260507093226 | 20 | 4.8 | 12.9 | 0.00 | 0.00 | 0.00 | 99 | 1015.6 | |
| 20260507092720 | 18 | 4.8 | 12.9 | 0.00 | 0.00 | 0.00 | 99 | 1015.6 | |
| 20260507092213 | 18 | 4.8 | 12.9 | 0.00 | 0.00 | 0.00 | 99 | 1015.6 | |
| 20260507091707 | 18 | 4.8 | 12.9 | 0.00 | 0.00 | 0.00 | 99 | 1015.6 | |
| 20260507091201 | 18 | 3.2 | 11.3 | 0.00 | 0.00 | 0.00 | 99 | 1015.5 | |
| 20260507090703 | 18 | 3.2 | 11.3 | 0.00 | 0.00 | 0.00 | 99 | 1015.5 | |
| 20260507090148 | 19 | 3.2 | 9.7 | 0.00 | 0.00 | 0.00 | 99 | 1015.5 | |
| 20260507085642 | 18 | 3.2 | 11.3 | 0.00 | 0.00 | 0.00 | 99 | 1015.6 | |
| 20260507085136 | 17 | 3.2 | 11.3 | 0.00 | 0.00 | 0.00 | 99 | 1015.5 | |
| 20260507084630 | 18 | 4.8 | 12.9 | 0.00 | 0.00 | 0.00 | 99 | 1015.6 | |
| 20260507084124 | 19 | 3.2 | 11.3 | 0.00 | 0.00 | 0.00 | 99 | 1015.6 | |
| 20260507083627 | 19 | 3.2 | 8.0 | 0.00 | 0.00 | 0.00 | 99 | 1015.7 | |
| 20260507083112 | 18 | 3.2 | 8.0 | 0.00 | 0.00 | 0.00 | 99 | 1015.7 | |
| 20260507082606 | 18 | 3.2 | 8.0 | 0.00 | 0.00 | 0.00 | 99 | 1015.7 | |
| 20260507082100 | 17 | 4.8 | 12.9 | 0.00 | 0.00 | 0.00 | 99 | 1015.7 | |
| 20260507081554 | 17 | 3.2 | 11.3 | 0.00 | 0.00 | 0.00 | 99 | 1015.7 | |
| 20260507081048 | 18 | 3.2 | 9.7 | 0.00 | 0.00 | 0.00 | 99 | 1015.8 | |
| 20260507080550 | 18 | 0.0 | 1.6 | 0.00 | 0.00 | 0.00 | 99 | 1015.8 | |
| 20260507080035 | 18 | 3.2 | 8.0 | 0.00 | 0.00 | 0.00 | 99 | 1015.7 | |
| 20260507075528 | 18 | 1.6 | 4.8 | 0.00 | 0.00 | 0.00 | 99 | 1015.8 | |
| 20260507075022 | 18 | 1.6 | 6.4 | 0.00 | 0.00 | 0.00 | 99 | 1015.8 | |
| 20260507074517 | 18 | 3.2 | 9.7 | 0.00 | 0.00 | 0.00 | 99 | 1015.7 | |
| 20260507074011 | 16 | 0.0 | 1.6 | 0.00 | 0.00 | 0.00 | 99 | 1015.8 | |
| 20260507073514 | 17 | 0.0 | 1.6 | 0.00 | 0.00 | 0.00 | 99 | 1015.8 | |
| 20260507072959 | 18 | 0.0 | 0.0 | 0.00 | 0.00 | 0.00 | 99 | 1015.8 | |
| 20260507072453 | 18 | 0.0 | 0.0 | 0.00 | 0.00 | 0.00 | 99 | 1015.9 | |
| 20260507071947 | 18 | 0.0 | 0.0 | 0.00 | 0.00 | 0.00 | 99 | 1015.9 | |
| 20260507071441 | 18 | 0.0 | 0.0 | 0.00 | 0.00 | 0.00 | 99 | 1015.9 | |
| 20260507070935 | 19 | 0.0 | 0.0 | 0.00 | 0.00 | 0.00 | 99 | 1015.9 | |
| 20260507070437 | 18 | 0.0 | 0.0 | 0.00 | 0.00 | 0.00 | 99 | 1016.0 | |
| 20260507065923 | 17 | 0.0 | 0.0 | 0.00 | 0.00 | 0.00 | 99 | 1015.9 | |
| 20260507065416 | 18 | 0.0 | 0.0 | 0.00 | 0.00 | 0.00 | 99 | 1015.9 | |
| 20260507064910 | 17 | 0.0 | 0.0 | 0.00 | 0.00 | 0.00 | 99 | 1015.9 | |
| 20260507064404 | 16 | 0.0 | 0.0 | 0.00 | 0.00 | 0.00 | 99 | 1015.9 | |
| 20260507063858 | 16 | 0.0 | 0.0 | 0.00 | 0.00 | 0.00 | 99 | 1015.9 | |
| 20260507063401 | 18 | 0.0 | 0.0 | 0.00 | 0.00 | 0.00 | 99 | 1015.8 | |
| 20260507062846 | 18 | 0.0 | 0.0 | 0.00 | 0.00 | 0.00 | 99 | 1015.8 | |
| 20260507062340 | 17 | 0.0 | 0.0 | 0.00 | 0.00 | 0.00 | 99 | 1015.8 | |
| 20260507061835 | 16 | 0.0 | 0.0 | 0.00 | 0.00 | 0.00 | 99 | 1015.8 | |
| 20260507061329 | 14 | 0.0 | 0.0 | 0.00 | 0.00 | 0.00 | 99 | 1015.9 | |
| 20260507060326 | 20 | 0.0 | 0.0 | 0.00 | 0.00 | 0.00 | 99 | 1015.9 | |
| 20260507055810 | 20 | 0.0 | 0.0 | 0.00 | 0.00 | 0.00 | 99 | 1016.0 | |
| 20260507055306 | 19 | 0.0 | 0.0 | 0.00 | 0.00 | 0.00 | 99 | 1016.0 | |
| 20260507054758 | 18 | 0.0 | 0.0 | 0.00 | 0.00 | 0.00 | 99 | 1015.9 | |
| 20260507054253 | 16 | 0.0 | 0.0 | 0.00 | 0.00 | 0.00 | 99 | 1015.9 | |
| 20260507053747 | 13 | 0.0 | 0.0 | 0.00 | 0.00 | 0.00 | 99 | 1015.8 | |
| 20260507053249 | 10 | 0.0 | 0.0 | 0.00 | 0.00 | 0.00 | 99 | 1015.7 | |
| 20260507052735 | 7 | 0.0 | 0.0 | 0.00 | 0.00 | 0.00 | 99 | 1015.7 | |
| 20260507052229 | 5 | 0.0 | 0.0 | 0.00 | 0.00 | 0.00 | 99 | 1015.7 | |
| 20260507051722 | 5 | 0.0 | 0.0 | 0.00 | 0.00 | 0.00 | 99 | 1015.7 | |
| 20260507051217 | 5 | 0.0 | 0.0 | 0.00 | 0.00 | 0.00 | 99 | 1015.6 | |
| 20260507050711 | 5 | 0.0 | 0.0 | 0.00 | 0.00 | 0.00 | 99 | 1015.6 | |
| 20260507050213 | 5 | 0.0 | 0.0 | 0.00 | 0.00 | 0.00 | 99 | 1015.5 | |
| 20260507045657 | 5 | 0.0 | 0.0 | 0.00 | 0.00 | 0.00 | 99 | 1015.5 | |
| 20260507045151 | 5 | 0.0 | 0.0 | 0.00 | 0.00 | 0.00 | 99 | 1015.6 | |
| 20260507044645 | 5 | 0.0 | 0.0 | 0.00 | 0.00 | 0.00 | 99 | 1015.6 | |
| 20260507044139 | 5 | 0.0 | 0.0 | 0.00 | 0.00 | 0.00 | 99 | 1015.5 | |
| 20260507043633 | 5 | 0.0 | 0.0 | 0.00 | 0.00 | 0.00 | 99 | 1015.5 | |
| 20260507043136 | 5 | 0.0 | 0.0 | 0.00 | 0.00 | 0.00 | 99 | 1015.5 | |
| 20260507042621 | 5 | 0.0 | 0.0 | 0.00 | 0.00 | 0.00 | 99 | 1015.6 | |
| 20260507042116 | 5 | 0.0 | 0.0 | 0.00 | 0.00 | 0.00 | 99 | 1015.6 | |
| 20260507041610 | 5 | 0.0 | 0.0 | 0.00 | 0.00 | 0.00 | 99 | 1015.6 | |
| 20260507041104 | 5 | 0.0 | 0.0 | 0.00 | 0.00 | 0.00 | 99 | 1015.6 | |
| 20260507040558 | 5 | 0.0 | 0.0 | 0.00 | 0.00 | 0.00 | 99 | 1015.6 | |
| 20260507040100 | 5 | 0.0 | 0.0 | 0.00 | 0.00 | 0.00 | 99 | 1015.5 | |
| 20260507035545 | 5 | 0.0 | 0.0 | 0.00 | 0.00 | 0.00 | 99 | 1015.6 | |
| 20260507035039 | 5 | 0.0 | 0.0 | 0.00 | 0.00 | 0.00 | 99 | 1015.7 | |
| 20260507034533 | 5 | 0.0 | 0.0 | 0.00 | 0.00 | 0.00 | 99 | 1015.7 | |
| 20260507034028 | 5 | 0.0 | 0.0 | 0.00 | 0.00 | 0.00 | 99 | 1015.6 | |
| 20260507033522 | 5 | 0.0 | 0.0 | 0.00 | 0.00 | 0.00 | 99 | 1015.6 | |
| 20260507033025 | 6 | 0.0 | 0.0 | 0.00 | 0.00 | 0.00 | 99 | 1015.6 | |
| 20260507032510 | 6 | 0.0 | 0.0 | 0.00 | 0.00 | 0.00 | 99 | 1015.7 | |
| 20260507032004 | 6 | 0.0 | 0.0 | 0.00 | 0.00 | 0.00 | 99 | 1015.6 | |
| 20260507031458 | 6 | 0.0 | 0.0 | 0.00 | 0.00 | 0.00 | 99 | 1015.7 | |
| 20260507030954 | 6 | 0.0 | 0.0 | 0.00 | 0.00 | 0.00 | 99 | 1015.6 | |
| 20260507030446 | 6 | 0.0 | 0.0 | 0.00 | 0.00 | 0.00 | 99 | 1015.6 | |
| 20260507025949 | 6 | 0.0 | 0.0 | 0.00 | 0.00 | 0.00 | 99 | 1015.7 | |
| 20260507025433 | 6 | 0.0 | 0.0 | 0.00 | 0.00 | 0.00 | 99 | 1015.7 | |
| 20260507024927 | 6 | 0.0 | 0.0 | 0.00 | 0.00 | 0.00 | 99 | 1015.7 | |
| 20260507024421 | 6 | 0.0 | 0.0 | 0.00 | 0.00 | 0.00 | 99 | 1015.7 | |
| 20260507023915 | 6 | 0.0 | 0.0 | 0.00 | 0.00 | 0.00 | 99 | 1015.7 | |
| 20260507023409 | 6 | 0.0 | 0.0 | 0.00 | 0.00 | 0.00 | 99 | 1015.7 | |
| 20260507022912 | 6 | 0.0 | 0.0 | 0.00 | 0.00 | 0.00 | 99 | 1015.7 | |
| 20260507022358 | 6 | 0.0 | 0.0 | 0.00 | 0.00 | 0.00 | 99 | 1015.7 | |
| 20260507021851 | 6 | 0.0 | 0.0 | 0.00 | 0.00 | 0.00 | 99 | 1015.7 | |
| 20260507021345 | 6 | 0.0 | 0.0 | 0.00 | 0.00 | 0.00 | 99 | 1015.7 | |
| 20260507020840 | 6 | 0.0 | 0.0 | 0.00 | 0.00 | 0.00 | 99 | 1015.6 | |
| 20260507020334 | 6 | 0.0 | 0.0 | 0.00 | 0.00 | 0.00 | 99 | 1015.7 | |
| 20260507015835 | 6 | 0.0 | 0.0 | 0.00 | 0.00 | 0.00 | 99 | 1015.7 | |
| 20260507015321 | 6 | 0.0 | 0.0 | 0.00 | 0.00 | 0.00 | 99 | 1015.7 | |
| 20260507014815 | 6 | 0.0 | 0.0 | 0.00 | 0.00 | 0.00 | 99 | 1015.7 | |
| 20260507014309 | 6 | 0.0 | 0.0 | 0.00 | 0.00 | 0.00 | 99 | 1015.7 | |
| 20260507013803 | 6 | 0.0 | 0.0 | 0.00 | 0.00 | 0.00 | 99 | 1015.8 | |
| 20260507013257 | 6 | 0.0 | 0.0 | 0.00 | 0.00 | 0.00 | 99 | 1015.8 | |
| 20260507012800 | 6 | 0.0 | 0.0 | 0.00 | 0.00 | 0.00 | 99 | 1015.9 | |
| 20260507012245 | 7 | 0.0 | 0.0 | 0.00 | 0.00 | 0.00 | 99 | 1015.9 | |
| 20260507011739 | 7 | 0.0 | 0.0 | 0.00 | 0.00 | 0.00 | 99 | 1015.9 | |
| 20260507011233 | 7 | 0.0 | 0.0 | 0.00 | 0.00 | 0.00 | 99 | 1015.9 | |
| 20260507010727 | 7 | 0.0 | 0.0 | 0.00 | 0.00 | 0.00 | 99 | 1015.9 | |
| 20260507010221 | 7 | 0.0 | 0.0 | 0.00 | 0.00 | 0.00 | 99 | 1016.0 | |
| 20260507005723 | 7 | 0.0 | 0.0 | 0.00 | 0.00 | 0.00 | 99 | 1016.0 | |
| 20260507005208 | 7 | 0.0 | 0.0 | 0.00 | 0.00 | 0.00 | 99 | 1016.0 | |
| 20260507004702 | 7 | 0.0 | 0.0 | 0.00 | 0.00 | 0.00 | 99 | 1016.0 | |
| 20260507004156 | 7 | 0.0 | 0.0 | 0.00 | 0.00 | 0.00 | 99 | 1016.0 | |
| 20260507003650 | 7 | 0.0 | 0.0 | 0.00 | 0.00 | 0.00 | 99 | 1016.0 | |
| 20260507003144 | 7 | 0.0 | 0.0 | 0.00 | 0.00 | 0.00 | 99 | 1016.1 | |
| 20260507002646 | 7 | 0.0 | 0.0 | 0.00 | 0.00 | 0.00 | 99 | 1016.2 | |
| 20260507002132 | 7 | 0.0 | 0.0 | 0.00 | 0.00 | 0.00 | 99 | 1016.3 | |
| 20260507001626 | 7 | 0.0 | 0.0 | 0.00 | 0.00 | 0.00 | 99 | 1016.3 | |
| 20260507001120 | 7 | 0.0 | 0.0 | 0.00 | 0.00 | 0.00 | 99 | 1016.3 | |
| 20260507000614 | 7 | 0.0 | 0.0 | 0.00 | 0.00 | 0.00 | 99 | 1016.4 | |
| 20260507000108 | 7 | 0.0 | 0.0 | 0.00 | 0.00 | 0.00 | 99 | 1016.5 | |
| 20260506235612 | 7 | 0.0 | 0.0 | 0.00 | 0.00 | 2.31 | 99 | 1016.5 | |
| 20260506235058 | 8 | 0.0 | 0.0 | 0.00 | 0.00 | 2.31 | 99 | 1016.5 | |
| 20260506234552 | 8 | 0.0 | 0.0 | 0.00 | 0.00 | 2.31 | 99 | 1016.5 | |
| 20260506234046 | 8 | 0.0 | 0.0 | 0.00 | 0.00 | 2.31 | 99 | 1016.6 | |
| 20260506233540 | 8 | 0.0 | 0.0 | 0.00 | 0.00 | 2.31 | 99 | 1016.5 | |
| 20260506233034 | 8 | 0.0 | 0.0 | 0.00 | 0.00 | 2.31 | 99 | 1016.5 | |
| 20260506232536 | 8 | 0.0 | 0.0 | 0.00 | 0.00 | 2.31 | 99 | 1016.5 | |
| 20260506232021 | 8 | 0.0 | 0.0 | 0.00 | 0.00 | 2.31 | 99 | 1016.5 | |
| 20260506231515 | 8 | 0.0 | 0.0 | 0.00 | 0.00 | 2.31 | 99 | 1016.5 | |
| 20260506231009 | 8 | 0.0 | 0.0 | 0.00 | 0.00 | 2.31 | 99 | 1016.5 | |
| 20260506230503 | 8 | 0.0 | 0.0 | 0.00 | 0.00 | 2.31 | 99 | 1016.6 | |
| 20260506225957 | 8 | 0.0 | 0.0 | 0.00 | 0.00 | 2.31 | 99 | 1016.6 | |
| 20260506225501 | 8 | 0.0 | 0.0 | 0.00 | 0.00 | 2.31 | 99 | 1016.6 | |
| 20260506224946 | 8 | 0.0 | 0.0 | 0.00 | 0.00 | 2.31 | 99 | 1016.6 | |
| 20260506224440 | 8 | 0.0 | 0.0 | 0.00 | 0.00 | 2.31 | 99 | 1016.6 | |
| 20260506223934 | 8 | 0.0 | 0.0 | 0.00 | 0.00 | 2.31 | 99 | 1016.6 | |
| 20260506223428 | 9 | 0.0 | 0.0 | 0.00 | 0.00 | 2.31 | 99 | 1016.7 | |
| 20260506222922 | 9 | 0.0 | 0.0 | 0.00 | 0.00 | 2.31 | 99 | 1016.6 | |
| 20260506222424 | 9 | 0.0 | 0.0 | 0.00 | 0.00 | 2.31 | 99 | 1016.6 | |
| 20260506221910 | 9 | 0.0 | 0.0 | 0.00 | 0.00 | 2.31 | 99 | 1016.6 | |
| 20260506221404 | 9 | 0.0 | 0.0 | 0.00 | 0.00 | 2.31 | 99 | 1016.7 | |
| 20260506220858 | 9 | 0.0 | 0.0 | 0.00 | 0.00 | 2.31 | 99 | 1016.7 | |
| 20260506220352 | 9 | 0.0 | 0.0 | 0.00 | 0.00 | 2.31 | 99 | 1016.7 | |
| 20260506215846 | 10 | 0.0 | 0.0 | 0.00 | 0.00 | 2.31 | 99 | 1016.7 | |
| 20260506215347 | 10 | 0.0 | 0.0 | 0.00 | 0.00 | 2.31 | 99 | 1016.7 | |
| 20260506214833 | 10 | 0.0 | 0.0 | 0.00 | 0.00 | 2.31 | 99 | 1016.7 |